When you browse on this site, cookies collect data to enhance your experience and personalize the content and advertising you see.
Visit our Privacy Policy to learn more. By continuing to use the site, you agree to this use of cookies and data.
  • In Österreich
  • Länderverzeichnis
  • Für 7 Tage
  • Wassertemperatur
  • Satellitenkarten
  • Wetterkarte
  • News
  • Widgets
  • user-avatar
    Anmelden

    Stündliche Wetter Starkville

    Heute, 24 Juni, Montag

    Zeit Temperatur Niederschläge Wind Luftdruck Luftfeuchtigkeit
    00:00 +26°C° 0 mm 4 m/S 750 mmHg 93%
    01:00 +26°C° 3 mm 4 m/S 749 mmHg 94%
    02:00 +26°C° 3 mm 4 m/S 749 mmHg 94%
    03:00 +26°C° 3 mm 4 m/S 748 mmHg 94%
    04:00 +25°C° 7.8 mm 4 m/S 748 mmHg 95%
    05:00 +25°C° 7.8 mm 3 m/S 749 mmHg 96%
    06:00 +24°C° 0 mm 3 m/S 749 mmHg 95%
    07:00 +23°C° 2.4 mm 4 m/S 749 mmHg 92%
    08:00 +22°C° 2.4 mm 4 m/S 750 mmHg 90%
    09:00 +22°C° 2.4 mm 5 m/S 750 mmHg 87%
    10:00 +25°C° 0 mm 5 m/S 750 mmHg 77%
    11:00 +27°C° 0 mm 5 m/S 750 mmHg 66%
    12:00 +29°C° 0 mm 4 m/S 750 mmHg 56%
    13:00 +30°C° 0 mm 4 m/S 750 mmHg 54%
    14:00 +32°C° 0 mm 5 m/S 750 mmHg 52%
    15:00 +33°C° 0 mm 5 m/S 750 mmHg 50%
    16:00 +32°C° 0 mm 4 m/S 750 mmHg 57%
    17:00 +30°C° 0 mm 3 m/S 751 mmHg 65%
    18:00 +29°C° 0 mm 2 m/S 751 mmHg 73%
    19:00 +27°C° 0 mm 2 m/S 751 mmHg 77%
    20:00 +26°C° 0 mm 1 m/S 751 mmHg 81%
    21:00 +25°C° 0 mm 1 m/S 751 mmHg 86%
    22:00 +24°C° 0 mm 1 m/S 751 mmHg 86%
    23:00 +24°C° 0 mm 1 m/S 751 mmHg 87%

    Morgen, 25 Juni, Dienstag

    Zeit Temperatur Niederschläge Wind Luftdruck Luftfeuchtigkeit
    00:00 +23°C° 0 mm 1 m/S 752 mmHg 88%
    01:00 +23°C° 0 mm 1 m/S 752 mmHg 88%
    02:00 +22°C° 0 mm 1 m/S 752 mmHg 89%
    03:00 +22°C° 0 mm 1 m/S 752 mmHg 89%
    04:00 +22°C° 0 mm 1 m/S 752 mmHg 89%
    05:00 +23°C° 0 mm 1 m/S 753 mmHg 88%
    06:00 +23°C° 0 mm 1 m/S 753 mmHg 87%
    07:00 +26°C° 0 mm 1 m/S 754 mmHg 79%
    08:00 +28°C° 0 mm 1 m/S 754 mmHg 72%
    09:00 +31°C° 0 mm 1 m/S 754 mmHg 65%
    10:00 +32°C° 0 mm 1 m/S 754 mmHg 59%
    11:00 +33°C° 0 mm 1 m/S 754 mmHg 53%
    12:00 +35°C° 0 mm 1 m/S 754 mmHg 48%
    13:00 +35°C° 0 mm 1 m/S 754 mmHg 46%
    14:00 +35°C° 0 mm 1 m/S 753 mmHg 44%
    15:00 +35°C° 0 mm 1 m/S 753 mmHg 42%
    16:00 +34°C° 0 mm 1 m/S 753 mmHg 50%
    17:00 +33°C° 0 mm 1 m/S 753 mmHg 58%
    18:00 +32°C° 0 mm 1 m/S 753 mmHg 66%
    19:00 +30°C° 0.1 mm 1 m/S 753 mmHg 72%
    20:00 +28°C° 0.1 mm 1 m/S 754 mmHg 77%
    21:00 +26°C° 0.1 mm 1 m/S 754 mmHg 82%
    22:00 +26°C° 0.4 mm 1 m/S 754 mmHg 85%
    23:00 +25°C° 0.4 mm 1 m/S 754 mmHg 88%

    übermorgen, 26 Juni, Mittwoch

    Zeit Temperatur Niederschläge Wind Luftdruck Luftfeuchtigkeit
    00:00 +24°C° 0.4 mm 1 m/S 755 mmHg 91%
    01:00 +24°C° 0.1 mm 1 m/S 755 mmHg 92%
    02:00 +24°C° 0.1 mm 1 m/S 755 mmHg 94%
    03:00 +24°C° 0.1 mm 1 m/S 755 mmHg 96%
    04:00 +24°C° 0 mm 1 m/S 755 mmHg 95%
    05:00 +24°C° 0 mm 1 m/S 755 mmHg 93%
    06:00 +23°C° 0 mm 0 m/S 756 mmHg 92%
    07:00 +26°C° 0.4 mm 1 m/S 756 mmHg 87%
    08:00 +28°C° 0.4 mm 1 m/S 756 mmHg 81%
    09:00 +29°C° 0.4 mm 2 m/S 756 mmHg 76%
    10:00 +31°C° 1 mm 2 m/S 756 mmHg 67%
    11:00 +32°C° 1 mm 2 m/S 756 mmHg 59%
    12:00 +34°C° 1 mm 2 m/S 757 mmHg 51%
    13:00 +35°C° 0 mm 2 m/S 756 mmHg 49%
    14:00 +35°C° 0 mm 2 m/S 756 mmHg 47%
    15:00 +34°C° 0 mm 1 m/S 755 mmHg 46%
    16:00 +33°C° 0 mm 1 m/S 755 mmHg 54%
    17:00 +32°C° 0 mm 1 m/S 755 mmHg 61%
    18:00 +31°C° 0 mm 1 m/S 755 mmHg 69%
    19:00 +29°C° 0.1 mm 1 m/S 755 mmHg 73%
    20:00 +27°C° 0.1 mm 1 m/S 755 mmHg 77%
    21:00 +26°C° 0.1 mm 1 m/S 756 mmHg 81%
    22:00 +25°C° 0 mm 1 m/S 756 mmHg 84%
    23:00 +25°C° 0 mm 1 m/S 756 mmHg 87%

    27 Juni, Donnerstag

    Zeit Temperatur Niederschläge Wind Luftdruck Luftfeuchtigkeit
    00:00 +24°C° 0 mm 1 m/S 756 mmHg 90%
    01:00 +24°C° 0.1 mm 1 m/S 756 mmHg 91%
    02:00 +22°C° 0.1 mm 0 m/S 755 mmHg 92%
    03:00 +22°C° 0.1 mm 0 m/S 755 mmHg 93%
    04:00 +22°C° 0 mm 0 m/S 756 mmHg 92%
    05:00 +22°C° 0 mm 0 m/S 756 mmHg 91%
    06:00 +25°C° 0 mm 1 m/S 756 mmHg 90%
    07:00 +27°C° 0 mm 1 m/S 756 mmHg 81%
    08:00 +29°C° 0 mm 1 m/S 757 mmHg 72%
    09:00 +31°C° 0 mm 1 m/S 757 mmHg 63%
    10:00 +32°C° 0 mm 1 m/S 757 mmHg 57%
    11:00 +34°C° 0 mm 1 m/S 757 mmHg 51%
    12:00 +36°C° 0 mm 2 m/S 756 mmHg 45%
    13:00 +35°C° 0 mm 1 m/S 756 mmHg 43%
    14:00 +35°C° 0 mm 1 m/S 755 mmHg 41%
    15:00 +36°C° 0 mm 1 m/S 755 mmHg 39%
    16:00 +34°C° 0 mm 1 m/S 755 mmHg 46%
    17:00 +33°C° 0 mm 1 m/S 755 mmHg 53%
    18:00 +31°C° 0 mm 1 m/S 755 mmHg 61%
    19:00 +30°C° 0 mm 1 m/S 755 mmHg 64%
    20:00 +28°C° 0 mm 1 m/S 755 mmHg 67%
    21:00 +27°C° 0 mm 1 m/S 755 mmHg 70%
    22:00 +26°C° 0 mm 1 m/S 755 mmHg 72%
    23:00 +26°C° 0 mm 1 m/S 755 mmHg 73%

    28 Juni, Freitag

    Zeit Temperatur Niederschläge Wind Luftdruck Luftfeuchtigkeit
    00:00 +25°C° 0 mm 1 m/S 755 mmHg 75%
    01:00 +25°C° 0 mm 1 m/S 755 mmHg 77%
    02:00 +24°C° 0 mm 1 m/S 755 mmHg 78%
    03:00 +23°C° 0 mm 1 m/S 755 mmHg 80%
    04:00 +24°C° 0 mm 1 m/S 755 mmHg 80%
    05:00 +24°C° 0 mm 1 m/S 756 mmHg 79%
    06:00 +24°C° 0 mm 1 m/S 756 mmHg 79%
    07:00 +26°C° 0 mm 1 m/S 756 mmHg 72%
    08:00 +29°C° 0 mm 1 m/S 756 mmHg 65%
    09:00 +31°C° 0 mm 2 m/S 756 mmHg 58%
    10:00 +32°C° 0 mm 2 m/S 756 mmHg 53%
    11:00 +34°C° 0 mm 2 m/S 756 mmHg 49%
    12:00 +36°C° 0 mm 2 m/S 756 mmHg 45%
    13:00 +35°C° 0 mm 2 m/S 756 mmHg 46%
    14:00 +35°C° 0 mm 2 m/S 755 mmHg 47%
    15:00 +35°C° 0 mm 2 m/S 755 mmHg 48%
    16:00 +32°C° 0.1 mm 2 m/S 755 mmHg 55%
    17:00 +30°C° 0.1 mm 2 m/S 754 mmHg 62%
    18:00 +29°C° 0.1 mm 1 m/S 754 mmHg 69%
    19:00 +27°C° 0 mm 1 m/S 754 mmHg 72%
    20:00 +26°C° 0 mm 1 m/S 755 mmHg 76%
    21:00 +25°C° 0 mm 1 m/S 755 mmHg 79%
    22:00 +24°C° 0 mm 1 m/S 755 mmHg 80%
    23:00 +22°C° 0 mm 0 m/S 755 mmHg 80%

    29 Juni, Samstag

    Zeit Temperatur Niederschläge Wind Luftdruck Luftfeuchtigkeit
    00:00 +22°C° 0 mm 0 m/S 755 mmHg 80%
    01:00 +21°C° 0 mm 0 m/S 755 mmHg 81%
    02:00 +21°C° 0 mm 0 m/S 755 mmHg 82%
    03:00 +21°C° 0 mm 0 m/S 755 mmHg 84%
    04:00 +21°C° 0 mm 0 m/S 755 mmHg 83%
    05:00 +22°C° 0 mm 0 m/S 755 mmHg 83%
    06:00 +23°C° 0 mm 0 m/S 755 mmHg 83%
    07:00 +24°C° 0 mm 0 m/S 756 mmHg 76%
    08:00 +28°C° 0 mm 1 m/S 756 mmHg 69%
    09:00 +30°C° 0 mm 1 m/S 756 mmHg 62%
    10:00 +32°C° 0 mm 1 m/S 756 mmHg 57%
    11:00 +34°C° 0 mm 2 m/S 756 mmHg 51%
    12:00 +35°C° 0 mm 2 m/S 755 mmHg 46%
    13:00 +34°C° 0 mm 1 m/S 755 mmHg 47%
    14:00 +34°C° 0 mm 1 m/S 754 mmHg 47%
    15:00 +34°C° 0 mm 1 m/S 754 mmHg 48%
    16:00 +33°C° 0 mm 1 m/S 754 mmHg 53%
    17:00 +32°C° 0 mm 1 m/S 754 mmHg 57%
    18:00 +30°C° 0 mm 0 m/S 753 mmHg 62%
    19:00 +28°C° 0 mm 0 m/S 754 mmHg 66%
    20:00 +28°C° 0 mm 1 m/S 754 mmHg 71%
    21:00 +26°C° 0 mm 1 m/S 754 mmHg 76%
    22:00 +25°C° 0.1 mm 1 m/S 754 mmHg 80%
    23:00 +25°C° 0.1 mm 1 m/S 754 mmHg 84%
    Mehr zeigen